SCP
-0 0 0 0 0 0 0 -0 0 0 0 -0 -0 -0 -0 -0 -0 0 -0 -0 -0 0 0 0 -0 -0 -0 -0 0 0 0 0 0 0 0 0 0 0 0 0 -0 -0 -0 0 0 0 0 0 0
0 0 0 0 0 -0 0 0 -0 -0 -0 -0 -0 0 -0 -0 -0 0 0 -0 -0 -0 0 0 -0 0 0 0 0 0 0 0 0 0 0 0 0 0 0 0 0 0 -0 -0 0 0 0 0 0
0 0 0 0 0 0 0 0 -0 -0 0 0 0 -0 0 0 -0 0 -0 -0 -0 0 0 0 0 0 0 0 0 0 0 0 0 0 0 0 0 0 0 0 0 0 -0 -0 -0 0 0 0 0
0 0 0 0 -0 -0 -0 -0 0 0 0 0 -0 -0 -0 -0 0 0 0 0 0 0 0 0 0 0 0 0 0 0 0 0 0 0 0 0 0 0 0 0 0 0 0 0 0 -0 0 0 0
0 0 0 0 0 -0 -0 -0 0 0 -0 -0 -0 -0 0 0 0 0 0 0 -0 -0 -0 -0 0 0 0 0 0 0 0 0 0 0 0 0 0 0 0 0 0 0 0 0 0 0 0 0 0
0 0 0 0 -0 0 0 0 0 -0 -0 -0 -0 0 0 0 -0 0 0 -0 -0 0 0 0 0 0 0 0 0 0 0 0 0 0 0 0 0 0 0 0 0 0 0 0 0 0 0 0 0
0 0 -0 -0 0 -0 -0 0 -0 -0 -0 -0 0 0 0 0 -0 0 -0 0 0 0 0 0 0 0 0 0 0 0 0 0 0 0 0 0 0 0 0 0 0 0 0 0 0 0 0 0 0
0 0 -0 -0 -0 0 0 -0 0 0 0 -0 0 0 0 0 0 -0 0 0 0 0 0 0 0 0 0 0 0 0 0 0 0 0 0 0 0 0 0 0 0 0 0 0 0 0 0 0 0
0 0 -0 -0 -0 -0 0 -0 -0 -0 -0 0 0 0 0 0 0 0 0 0 0 0 0 0 0 0 0 0 0 0 0 0 0 0 0 0 0 0 0 0 0 0 0 0 0 0 0 0 0
0 0 -0 -0 -0 -0 0 0 0 0 0 0 0 0 0 0 0 0 0 0 0 0 0 0 0 0 0 0 0 0 0 0 0 0 0 0 0 0 0 0 0 0 0 0 0 0 0 0 0
-0 -0 -0 0 0 -0 0 0 -0 0 0 0 0 0 0 0 0 0 0 0 0 0 0 0 0 0 0 0 0 0 0 0 0 0 0 0 0 0 0 0 0 0 0 0 0 0 0 0 0
-0 -0 -0 -0 0 -0 -0 -0 -0 0 -0 0 0 0 0 0 0 0 0 0 0 0 0 0 0 0 0 0 0 0 0 0 0 0 0 0 0 0 0 0 0 0 1 1 0 0 0 0 0
-0 -0 0 0 0 -0 -0 -0 0 0 0 0 0 0 0 0 0 0 0 0 0 0 0 0 0 0 0 0 0 0 0 0 0 0 0 0 0 0 0 0 0 0 0 1 1 1 0 0 0
0 0 0 0 0 0 0 0 0 0 0 0 0 0 0 0 0 0 0 0 0 0 0 0 0 0 0 0 0 0 0 0 0 0 0 0 0 0 0 0 0 0 0 0 1 1 0 0 0
0 0 0 0 0 0 0 0 0 0 0 0 0 0 0 0 0 0 0 0 0 0 0 0 0 0 0 0 0 0 0 0 0 0 0 0 0 0 0 0 0 0 0 0 0 1 0 0 0
0 0 0 0 0 0 0 0 0 0 0 0 0 0 0 0 0 0 0 0 0 0 0 0 0 0 0 0 0 0 0 0 0 0 0 0 0 0 0 0 0 0 0 0 0 0 0 0 0
0 0 0 0 0 0 0 0 0 0 0 0 0 0 0 0 0 0 0 0 0 0 0 0 0 0 0 0 0 0 0 0 0 0 0 0 0 0 0 0 0 0 0 0 0 0 0 0 0
0 0 0 0 0 0 0 0 0 0 0 0 0 0 0 0 0 0 0 0 0 0 0 0 0 0 0 0 0 0 0 0 0 0 0 0 0 0 0 0 0 0 0 0 0 0 0 0 0
0 0 0 0 0 0 0 0 0 0 0 0 0 0 0 0 0 0 0 0 0 0 0 0 0 0 0 0 0 0 0 0 0 0 0 0 -0 -0 0 0 0 0 0 0 -0 0 0 0 0
0 0 0 0 0 0 0 0 0 0 0 0 0 0 0 0 0 0 0 0 0 0 0 0 0 0 0 0 0 0 0 0 0 0 0 0 -0 -0 -0 0 0 0 0 0 0 0 0 0 0
0 0 0 0 0 0 0 0 0 0 0 0 0 0 0 0 0 0 0 0 0 0 0 0 0 0 0 0 0 0 0 0 0 0 0 0 0 -0 -0 -0 0 0 0 0 0 0 0 0 0
0 0 0 0 0 0 0 0 0 0 0 0 0 0 0 0 0 0 0 0 0 0 0 0 0 0 0 0 0 -0 0 0 0 0 0 0 0 -0 -0 -0 -0 0 0 0 0 0 0 0 0
0 0 0 0 0 0 0 0 0 0 0 0 0 0 0 0 0 0 0 0 0 0 -0 -0 -0 -0 -0 0 0 0 -0 0 0 0 0 0 0 -0 -0 -0 0 0 0 0 0 0 0 0 0
0 0 0 0 0 0 0 0 0 0 0 0 0 0 0 0 0 0 0 0 0 -0 -0 -0 -0 -0 -0 0 0 0 0 0 0 0 0 0 0 0 -0 -0 0 0 0 0 0 0 0 0 0
0 0 0 0 0 0 0 0 0 0 0 0 0 0 0 0 0 0 0 0 0 0 -0 -0 -0 -0 -0 -0 -0 0 0 0 0 0 0 0 0 0 -0 0 0 0 -0 0 0 0 0 0 0
0 0 0 0 0 0 0 0 0 0 0 0 0 0 0 0 0 0 0 0 0 -0 -0 -0 -0 -0 -0 -0 -0 0 0 0 0 0 0 0 0 0 0 -0 -0 -0 -0 0 0 0 0 0 0
0 0 0 0 0 0 0 0 0 0 0 0 0 0 0 0 0 0 0 0 0 -0 -0 -0 -0 -0 -0 -0 -0 -0 0 0 0 0 0 0 0 0 0 0 0 0 0 0 0 0 0 0 0
0 0 0 0 0 0 0 0 0 0 0 0 0 0 0 0 0 0 0 0 0 -0 -0 -0 -0 -0 -0 -0 -0 0 0 0 0 0 0 0 0 0 0 0 0 0 0 0 0 0 0 0 0
0 0 0 0 0 0 0 0 0 0 0 0 0 0 0 0 0 0 0 0 0 -0 -0 -0 -0 -0 -0 -0 -0 -0 0 0 0 0 0 0 0 0 0 0 0 0 0 0 0 0 0 0 0
0 0 0 0 0 0 0 0 0 0 0 0 0 0 0 0 0 0 0 0 0 -0 -0 -0 -0 -0 -0 -0 -0 -0 0 0 0 0 0 0 0 0 0 0 0 0 0 0 0 0 0 0 0
Wind_Speed_500mb
9 4 6 7 10 5 10 11 8 10 8 18 21 26 28 21 12 6 23 30 37 37 33 28 25 25 23 23 23 25 25 25 27 27 24 24 25 23 24 23 19 12 9 15 21 24 25 28 24
9 9 1 9 10 12 11 5 12 9 17 14 13 8 14 11 20 7 18 36 38 40 38 36 35 34 32 32 31 32 28 25 29 27 28 28 29 30 30 31 29 23 16 14 20 30 32 34 36
12 8 11 6 10 12 13 10 16 16 11 3 7 14 8 10 18 15 29 36 36 39 41 42 41 41 42 40 39 35 35 33 31 30 31 32 32 34 33 36 36 32 26 22 20 29 35 38 40
6 6 7 16 18 17 21 16 11 15 12 6 14 15 15 14 11 23 30 31 34 38 39 39 41 43 44 46 46 43 39 43 40 37 37 36 37 37 38 39 38 43 37 31 25 25 29 32 34
3 8 7 5 16 18 18 15 6 8 10 10 4 10 11 10 17 23 28 33 37 39 44 45 44 42 44 47 49 49 48 43 47 49 48 42 43 45 45 43 44 45 47 41 34 29 28 32 32
14 8 10 14 16 13 14 10 11 12 10 11 16 11 8 8 22 27 29 31 34 38 41 44 48 51 50 50 50 50 50 50 48 52 55 57 51 49 50 50 50 50 53 52 41 35 30 32 35
7 12 8 11 15 11 10 5 8 9 8 10 3 1 7 8 26 29 29 29 34 39 48 52 51 49 47 51 54 54 53 51 53 56 58 62 61 58 56 53 55 58 61 61 50 38 30 32 36
2 3 10 6 17 10 15 9 7 4 7 6 2 3 7 21 28 29 28 29 35 38 47 50 56 58 53 51 48 53 55 53 54 54 60 62 67 65 63 61 56 57 56 64 49 38 30 29 31
1 9 11 11 15 15 22 12 6 5 11 9 7 9 8 19 25 29 32 32 37 41 49 52 56 56 55 53 51 52 52 56 54 53 56 63 63 67 61 61 59 57 48 60 52 42 30 27 31
6 7 7 8 13 14 25 14 16 12 14 11 10 7 13 19 26 30 35 40 44 50 51 53 53 53 54 52 53 52 50 51 53 51 49 56 65 64 68 55 53 54 53 54 55 37 35 32 31
9 7 14 8 5 22 20 16 10 10 9 4 4 7 17 23 29 36 41 44 49 51 50 51 52 50 50 50 52 48 48 49 51 53 49 49 57 64 64 61 56 56 54 54 55 54 50 44 32
9 9 6 16 13 16 18 16 10 7 9 11 6 9 17 25 31 35 40 44 47 48 48 53 49 46 46 51 48 50 50 50 48 46 52 52 49 55 62 65 61 48 51 56 60 60 56 48 39
17 16 20 18 16 16 14 11 4 14 14 9 5 9 16 23 28 30 34 38 43 48 52 53 49 44 47 49 49 51 56 55 54 50 42 42 43 44 52 65 64 64 55 56 61 64 59 51 45
16 27 26 16 18 13 11 8 5 15 17 9 2 9 14 20 25 30 35 40 43 46 49 48 45 44 52 50 53 53 55 56 54 50 47 45 43 45 47 55 64 68 64 54 60 62 61 59 52
32 20 14 15 16 7 8 11 19 16 20 13 6 6 11 18 22 29 33 37 41 41 44 47 47 50 50 47 49 44 50 54 51 48 44 46 44 40 40 50 60 58 60 67 57 57 54 53 55
8 11 9 19 19 9 11 5 23 19 22 18 10 7 10 14 21 26 32 34 36 39 42 47 48 50 55 53 46 41 44 51 55 52 48 40 38 38 37 42 53 68 61 45 63 61 56 60 60
13 11 21 11 25 10 21 3 16 20 22 20 14 7 8 12 20 26 31 34 36 39 44 52 53 51 53 50 48 48 45 45 46 49 45 42 39 35 34 33 41 50 64 43 50 64 70 61 53
16 13 11 19 23 22 22 29 15 21 23 22 14 8 5 10 18 23 29 33 36 41 46 50 51 54 55 52 53 47 48 51 50 46 41 41 39 33 22 21 28 37 55 62 50 64 73 72 74
11 20 17 8 11 20 30 29 19 29 26 23 19 11 2 7 13 19 27 31 35 44 50 54 63 65 62 64 55 47 46 46 49 46 41 37 28 19 19 11 15 24 33 48 64 44 47 68 76
11 13 11 6 13 14 16 29 27 29 32 28 21 13 3 3 9 16 23 30 39 45 52 59 66 67 67 63 57 49 49 52 51 53 42 47 32 25 14 9 5 9 15 23 34 33 44 43 48
14 19 10 6 14 17 15 25 32 18 25 22 19 13 6 3 7 12 19 25 36 45 49 52 56 63 66 66 64 52 48 46 57 72 62 49 34 30 27 17 14 8 15 17 22 21 32 26 29
17 3 5 13 13 7 7 10 14 25 27 29 28 20 12 6 7 11 17 22 33 38 41 45 52 55 59 61 65 68 70 68 66 70 76 72 66 67 51 37 32 24 22 21 25 22 16 18 23
7 8 8 7 11 6 14 10 7 20 29 30 35 27 18 12 10 11 17 24 31 34 35 40 48 55 63 67 61 62 66 67 68 68 69 70 72 69 60 51 47 41 37 32 26 19 18 20 20
21 13 9 3 5 10 21 16 10 15 20 34 41 33 26 19 16 18 24 21 22 26 30 37 44 48 49 52 54 55 61 66 67 69 71 69 68 69 67 62 57 52 49 46 41 36 33 28 26
5 8 6 6 8 10 5 9 20 14 10 33 45 41 32 25 25 23 19 21 25 28 32 35 40 43 44 46 48 51 54 56 62 64 65 63 66 66 66 62 58 54 49 45 41 38 36 36 34
18 5 6 12 8 3 6 14 7 4 13 33 45 41 36 33 31 30 27 24 23 27 29 31 33 34 37 38 41 42 46 52 54 56 57 59 59 59 55 54 51 47 45 43 41 39 37 36 33
12 15 7 3 2 4 14 11 7 12 19 40 46 45 42 39 39 33 32 26 24 26 25 25 27 30 31 34 36 40 43 45 47 48 48 50 50 51 52 53 53 51 48 47 46 45 43 40 34
9 6 6 6 9 10 9 10 14 26 33 37 44 50 48 45 41 34 33 29 25 22 19 20 23 26 28 31 34 36 39 40 41 42 44 47 47 48 51 52 51 49 48 47 46 44 43 42 40
11 8 11 7 6 6 7 10 7 33 43 49 54 56 57 54 46 41 39 34 27 23 17 15 19 20 22 26 29 32 35 37 39 42 44 45 46 49 48 49 48 47 47 49 49 50 49 48 45
17 17 21 11 15 9 6 15 3 3 37 54 56 58 58 54 48 44 43 38 29 22 17 11 12 12 17 23 26 29 30 33 37 41 44 45 46 47 49 48 48 49 49 48 47 48 48 49 49
Wind_Direction_500mb
211 177 164 266 231 194 131 96 103 99 92 64 63 71 80 43 14 36 333 336 343 345 348 337 325 309 309 309 297 301 291 291 290 283 281 276 273 271 259 256 267 260 261 220 225 230 229 226 232
178 145 227 274 255 194 105 95 95 80 106 113 68 74 46 77 36 15 354 341 348 349 346 336 325 317 306 303 302 294 287 281 277 276 276 277 270 268 264 257 259 256 242 244 238 233 238 240 235
150 141 267 283 288 63 111 119 97 86 128 102 99 68 53 17 12 351 335 343 350 348 345 340 333 322 313 306 303 294 278 270 263 267 265 270 271 266 266 258 259 249 246 246 250 242 241 241 240
147 206 217 249 89 42 93 95 86 118 96 55 95 78 77 36 359 343 340 350 351 346 341 335 330 324 317 307 302 298 285 271 261 253 262 257 259 262 263 260 259 253 251 250 254 249 244 239 242
187 238 200 144 80 106 72 65 55 111 83 73 15 97 101 33 6 347 346 349 346 344 340 335 329 319 311 308 305 298 292 281 264 259 253 256 257 257 257 258 255 253 254 250 252 254 247 238 234
206 261 219 188 110 109 83 74 71 93 93 79 95 119 109 49 359 351 348 342 340 339 338 333 326 320 315 309 303 299 294 286 275 263 259 256 252 257 256 252 253 251 250 250 246 250 249 240 235
261 238 44 83 132 149 119 98 83 95 131 73 110 192 119 359 353 349 343 342 342 337 336 334 330 326 318 308 305 299 295 290 281 272 263 258 257 256 258 257 251 248 248 241 239 240 247 244 237
281 242 167 155 173 128 144 122 104 42 92 107 51 91 116 341 345 348 344 343 342 338 336 333 332 331 324 316 306 297 294 290 286 277 270 264 255 255 260 261 253 249 247 241 228 231 234 248 244
25 220 170 157 166 146 160 151 134 143 121 96 79 79 6 343 344 349 348 343 341 339 338 333 331 329 325 322 314 306 297 293 287 283 275 267 262 253 256 260 258 248 246 231 219 227 227 235 249
310 253 89 35 89 157 162 171 150 162 151 128 120 68 359 351 350 349 348 344 343 340 337 332 330 328 327 326 320 314 304 294 289 282 275 269 263 260 248 243 250 255 243 245 223 241 236 233 240
19 28 125 91 95 141 144 149 166 181 181 121 117 360 354 353 351 352 348 345 341 336 334 334 332 332 332 330 329 325 319 312 301 291 283 271 264 260 258 245 246 247 241 241 231 226 231 233 227
110 80 102 129 124 141 161 145 171 197 91 133 94 18 354 355 353 349 344 342 339 339 337 333 334 334 334 333 330 324 321 318 315 304 291 283 272 264 252 253 240 239 244 237 238 229 232 233 231
101 126 116 125 134 148 145 175 201 191 161 140 77 8 357 352 348 345 341 340 339 338 337 339 342 344 343 341 334 331 328 325 320 313 302 294 283 274 260 245 249 240 238 232 234 234 234 233 227
125 134 128 138 142 149 176 178 205 187 177 172 42 354 352 346 345 343 345 344 342 341 343 358 359 359 350 348 346 338 339 337 331 323 317 300 286 277 267 251 240 256 235 237 229 230 232 233 235
129 123 139 169 171 148 186 213 222 169 186 200 235 308 342 347 350 350 346 344 343 344 348 355 0 358 357 352 344 343 336 342 337 330 319 310 293 279 273 261 246 241 243 238 237 235 242 240 249
140 166 189 165 177 153 202 288 175 181 193 212 237 281 331 348 352 351 351 348 349 348 357 2 2 359 359 356 2 3 0 356 353 345 331 317 306 297 277 267 252 240 256 247 237 237 240 246 242
200 222 212 170 201 151 207 257 161 193 206 223 232 269 324 346 353 358 359 358 359 357 5 12 9 1 1 8 22 15 6 356 348 343 343 334 314 301 287 274 261 250 235 248 255 242 242 246 249
202 225 214 207 191 209 210 247 174 207 215 220 223 244 311 355 1 5 7 7 9 16 18 17 15 15 14 17 24 11 13 10 358 350 344 327 312 308 284 283 276 260 244 251 261 257 247 242 245
315 225 205 165 150 200 231 246 247 201 221 219 218 225 275 17 15 19 17 18 22 29 28 25 26 23 21 25 20 22 15 9 12 6 9 1 359 336 341 334 305 281 256 258 268 248 273 253 257
194 208 203 115 170 216 246 251 245 211 213 217 211 208 200 33 31 29 28 26 34 33 38 37 38 35 28 28 29 31 31 29 26 20 22 26 37 33 24 8 357 291 273 278 281 287 273 262 279
213 220 180 323 171 237 283 261 224 215 202 198 202 189 167 101 52 38 32 30 43 46 45 44 43 44 43 39 43 46 40 43 50 46 37 43 33 28 46 56 53 15 359 319 323 309 290 288 299
220 144 187 160 185 266 208 285 198 188 202 202 199 190 172 145 89 52 54 54 58 55 50 47 49 49 48 46 50 51 54 53 52 55 55 54 57 59 63 63 59 45 42 23 21 1 335 301 285
79 139 142 171 231 315 195 255 149 174 209 201 195 182 170 155 133 95 86 78 75 68 61 61 58 57 58 55 52 50 51 48 47 51 55 56 57 61 61 56 54 47 42 36 27 23 5 18 8
140 118 107 166 225 244 226 219 192 191 219 190 186 178 169 160 148 127 113 94 77 74 71 63 59 56 54 54 52 49 49 51 51 50 50 48 49 48 50 50 52 54 54 51 49 50 51 49 45
229 168 184 224 208 252 138 206 263 191 181 184 174 171 168 162 158 150 135 112 98 84 76 68 64 59 54 50 50 49 48 48 47 43 43 41 42 41 39 37 35 35 34 35 33 30 29 25 21
194 258 220 233 206 117 150 227 227 64 149 164 168 166 164 164 165 161 148 132 107 94 82 70 61 53 49 47 47 45 46 45 42 40 37 37 37 35 34 33 33 32 28 26 23 18 17 15 8
175 217 15 71 88 245 214 215 172 159 164 159 164 166 170 169 167 166 156 144 124 108 88 65 54 51 47 45 43 44 45 45 43 40 38 37 33 28 25 24 24 24 23 22 20 18 16 13 9
247 348 166 198 236 244 232 248 237 191 180 177 175 177 175 171 171 171 166 158 141 118 95 63 49 50 48 49 47 45 44 42 41 39 37 35 31 27 25 24 23 22 20 17 14 12 10 9 9
188 210 231 288 231 256 269 235 19 191 185 184 181 182 178 176 178 177 174 170 154 135 112 69 53 54 54 51 49 45 42 39 38 36 36 34 32 31 29 28 26 23 20 18 15 13 9 6 5
271 234 207 233 196 237 316 259 81 119 186 185 182 182 183 182 182 180 181 177 167 150 126 91 71 70 59 52 50 46 44 40 39 38 38 36 34 33 31 29 27 26 25 23 20 16 11 8 5
Wind_Speed_850mb
9 4 6 7 10 5 10 11 8 10 8 18 21 26 28 21 12 6 23 30 37 37 33 28 25 25 23 23 23 25 25 25 27 27 24 24 25 23 24 23 19 12 9 15 21 24 25 28 24
9 9 1 9 10 12 11 5 12 9 17 14 13 8 14 11 20 7 18 36 38 40 38 36 35 34 32 32 31 32 28 25 29 27 28 28 29 30 30 31 29 23 16 14 20 30 32 34 36
12 8 11 6 10 12 13 10 16 16 11 3 7 14 8 10 18 15 29 36 36 39 41 42 41 41 42 40 39 35 35 33 31 30 31 32 32 34 33 36 36 32 26 22 20 29 35 38 40
6 6 7 16 18 17 21 16 11 15 12 6 14 15 15 14 11 23 30 31 34 38 39 39 41 43 44 46 46 43 39 43 40 37 37 36 37 37 38 39 38 43 37 31 25 25 29 32 34
3 8 7 5 16 18 18 15 6 8 10 10 4 10 11 10 17 23 28 33 37 39 44 45 44 42 44 47 49 49 48 43 47 49 48 42 43 45 45 43 44 45 47 41 34 29 28 32 32
14 8 10 14 16 13 14 10 11 12 10 11 16 11 8 8 22 27 29 31 34 38 41 44 48 51 50 50 50 50 50 50 48 52 55 57 51 49 50 50 50 50 53 52 41 35 30 32 35
7 12 8 11 15 11 10 5 8 9 8 10 3 1 7 8 26 29 29 29 34 39 48 52 51 49 47 51 54 54 53 51 53 56 58 62 61 58 56 53 55 58 61 61 50 38 30 32 36
2 3 10 6 17 10 15 9 7 4 7 6 2 3 7 21 28 29 28 29 35 38 47 50 56 58 53 51 48 53 55 53 54 54 60 62 67 65 63 61 56 57 56 64 49 38 30 29 31
1 9 11 11 15 15 22 12 6 5 11 9 7 9 8 19 25 29 32 32 37 41 49 52 56 56 55 53 51 52 52 56 54 53 56 63 63 67 61 61 59 57 48 60 52 42 30 27 31
6 7 7 8 13 14 25 14 16 12 14 11 10 7 13 19 26 30 35 40 44 50 51 53 53 53 54 52 53 52 50 51 53 51 49 56 65 64 68 55 53 54 53 54 55 37 35 32 31
9 7 14 8 5 22 20 16 10 10 9 4 4 7 17 23 29 36 41 44 49 51 50 51 52 50 50 50 52 48 48 49 51 53 49 49 57 64 64 61 56 56 54 54 55 54 50 44 32
9 9 6 16 13 16 18 16 10 7 9 11 6 9 17 25 31 35 40 44 47 48 48 53 49 46 46 51 48 50 50 50 48 46 52 52 49 55 62 65 61 48 51 56 60 60 56 48 39
17 16 20 18 16 16 14 11 4 14 14 9 5 9 16 23 28 30 34 38 43 48 52 53 49 44 47 49 49 51 56 55 54 50 42 42 43 44 52 65 64 64 55 56 61 64 59 51 45
16 27 26 16 18 13 11 8 5 15 17 9 2 9 14 20 25 30 35 40 43 46 49 48 45 44 52 50 53 53 55 56 54 50 47 45 43 45 47 55 64 68 64 54 60 62 61 59 52
32 20 14 15 16 7 8 11 19 16 20 13 6 6 11 18 22 29 33 37 41 41 44 47 47 50 50 47 49 44 50 54 51 48 44 46 44 40 40 50 60 58 60 67 57 57 54 53 55
8 11 9 19 19 9 11 5 23 19 22 18 10 7 10 14 21 26 32 34 36 39 42 47 48 50 55 53 46 41 44 51 55 52 48 40 38 38 37 42 53 68 61 45 63 61 56 60 60
13 11 21 11 25 10 21 3 16 20 22 20 14 7 8 12 20 26 31 34 36 39 44 52 53 51 53 50 48 48 45 45 46 49 45 42 39 35 34 33 41 50 64 43 50 64 70 61 53
16 13 11 19 23 22 22 29 15 21 23 22 14 8 5 10 18 23 29 33 36 41 46 50 51 54 55 52 53 47 48 51 50 46 41 41 39 33 22 21 28 37 55 62 50 64 73 72 74
11 20 17 8 11 20 30 29 19 29 26 23 19 11 2 7 13 19 27 31 35 44 50 54 63 65 62 64 55 47 46 46 49 46 41 37 28 19 19 11 15 24 33 48 64 44 47 68 76
11 13 11 6 13 14 16 29 27 29 32 28 21 13 3 3 9 16 23 30 39 45 52 59 66 67 67 63 57 49 49 52 51 53 42 47 32 25 14 9 5 9 15 23 34 33 44 43 48
14 19 10 6 14 17 15 25 32 18 25 22 19 13 6 3 7 12 19 25 36 45 49 52 56 63 66 66 64 52 48 46 57 72 62 49 34 30 27 17 14 8 15 17 22 21 32 26 29
17 3 5 13 13 7 7 10 14 25 27 29 28 20 12 6 7 11 17 22 33 38 41 45 52 55 59 61 65 68 70 68 66 70 76 72 66 67 51 37 32 24 22 21 25 22 16 18 23
7 8 8 7 11 6 14 10 7 20 29 30 35 27 18 12 10 11 17 24 31 34 35 40 48 55 63 67 61 62 66 67 68 68 69 70 72 69 60 51 47 41 37 32 26 19 18 20 20
21 13 9 3 5 10 21 16 10 15 20 34 41 33 26 19 16 18 24 21 22 26 30 37 44 48 49 52 54 55 61 66 67 69 71 69 68 69 67 62 57 52 49 46 41 36 33 28 26
5 8 6 6 8 10 5 9 20 14 10 33 45 41 32 25 25 23 19 21 25 28 32 35 40 43 44 46 48 51 54 56 62 64 65 63 66 66 66 62 58 54 49 45 41 38 36 36 34
18 5 6 12 8 3 6 14 7 4 13 33 45 41 36 33 31 30 27 24 23 27 29 31 33 34 37 38 41 42 46 52 54 56 57 59 59 59 55 54 51 47 45 43 41 39 37 36 33
12 15 7 3 2 4 14 11 7 12 19 40 46 45 42 39 39 33 32 26 24 26 25 25 27 30 31 34 36 40 43 45 47 48 48 50 50 51 52 53 53 51 48 47 46 45 43 40 34
9 6 6 6 9 10 9 10 14 26 33 37 44 50 48 45 41 34 33 29 25 22 19 20 23 26 28 31 34 36 39 40 41 42 44 47 47 48 51 52 51 49 48 47 46 44 43 42 40
11 8 11 7 6 6 7 10 7 33 43 49 54 56 57 54 46 41 39 34 27 23 17 15 19 20 22 26 29 32 35 37 39 42 44 45 46 49 48 49 48 47 47 49 49 50 49 48 45
17 17 21 11 15 9 6 15 3 3 37 54 56 58 58 54 48 44 43 38 29 22 17 11 12 12 17 23 26 29 30 33 37 41 44 45 46 47 49 48 48 49 49 48 47 48 48 49 49
Wind_Direction_850mb
211 177 164 266 231 194 131 96 103 99 92 64 63 71 80 43 14 36 333 336 343 345 348 337 325 309 309 309 297 301 291 291 290 283 281 276 273 271 259 256 267 260 261 220 225 230 229 226 232
178 145 227 274 255 194 105 95 95 80 106 113 68 74 46 77 36 15 354 341 348 349 346 336 325 317 306 303 302 294 287 281 277 276 276 277 270 268 264 257 259 256 242 244 238 233 238 240 235
150 141 267 283 288 63 111 119 97 86 128 102 99 68 53 17 12 351 335 343 350 348 345 340 333 322 313 306 303 294 278 270 263 267 265 270 271 266 266 258 259 249 246 246 250 242 241 241 240
147 206 217 249 89 42 93 95 86 118 96 55 95 78 77 36 359 343 340 350 351 346 341 335 330 324 317 307 302 298 285 271 261 253 262 257 259 262 263 260 259 253 251 250 254 249 244 239 242
187 238 200 144 80 106 72 65 55 111 83 73 15 97 101 33 6 347 346 349 346 344 340 335 329 319 311 308 305 298 292 281 264 259 253 256 257 257 257 258 255 253 254 250 252 254 247 238 234
206 261 219 188 110 109 83 74 71 93 93 79 95 119 109 49 359 351 348 342 340 339 338 333 326 320 315 309 303 299 294 286 275 263 259 256 252 257 256 252 253 251 250 250 246 250 249 240 235
261 238 44 83 132 149 119 98 83 95 131 73 110 192 119 359 353 349 343 342 342 337 336 334 330 326 318 308 305 299 295 290 281 272 263 258 257 256 258 257 251 248 248 241 239 240 247 244 237
281 242 167 155 173 128 144 122 104 42 92 107 51 91 116 341 345 348 344 343 342 338 336 333 332 331 324 316 306 297 294 290 286 277 270 264 255 255 260 261 253 249 247 241 228 231 234 248 244
25 220 170 157 166 146 160 151 134 143 121 96 79 79 6 343 344 349 348 343 341 339 338 333 331 329 325 322 314 306 297 293 287 283 275 267 262 253 256 260 258 248 246 231 219 227 227 235 249
310 253 89 35 89 157 162 171 150 162 151 128 120 68 359 351 350 349 348 344 343 340 337 332 330 328 327 326 320 314 304 294 289 282 275 269 263 260 248 243 250 255 243 245 223 241 236 233 240
19 28 125 91 95 141 144 149 166 181 181 121 117 360 354 353 351 352 348 345 341 336 334 334 332 332 332 330 329 325 319 312 301 291 283 271 264 260 258 245 246 247 241 241 231 226 231 233 227
110 80 102 129 124 141 161 145 171 197 91 133 94 18 354 355 353 349 344 342 339 339 337 333 334 334 334 333 330 324 321 318 315 304 291 283 272 264 252 253 240 239 244 237 238 229 232 233 231
101 126 116 125 134 148 145 175 201 191 161 140 77 8 357 352 348 345 341 340 339 338 337 339 342 344 343 341 334 331 328 325 320 313 302 294 283 274 260 245 249 240 238 232 234 234 234 233 227
125 134 128 138 142 149 176 178 205 187 177 172 42 354 352 346 345 343 345 344 342 341 343 358 359 359 350 348 346 338 339 337 331 323 317 300 286 277 267 251 240 256 235 237 229 230 232 233 235
129 123 139 169 171 148 186 213 222 169 186 200 235 308 342 347 350 350 346 344 343 344 348 355 0 358 357 352 344 343 336 342 337 330 319 310 293 279 273 261 246 241 243 238 237 235 242 240 249
140 166 189 165 177 153 202 288 175 181 193 212 237 281 331 348 352 351 351 348 349 348 357 2 2 359 359 356 2 3 0 356 353 345 331 317 306 297 277 267 252 240 256 247 237 237 240 246 242
200 222 212 170 201 151 207 257 161 193 206 223 232 269 324 346 353 358 359 358 359 357 5 12 9 1 1 8 22 15 6 356 348 343 343 334 314 301 287 274 261 250 235 248 255 242 242 246 249
202 225 214 207 191 209 210 247 174 207 215 220 223 244 311 355 1 5 7 7 9 16 18 17 15 15 14 17 24 11 13 10 358 350 344 327 312 308 284 283 276 260 244 251 261 257 247 242 245
315 225 205 165 150 200 231 246 247 201 221 219 218 225 275 17 15 19 17 18 22 29 28 25 26 23 21 25 20 22 15 9 12 6 9 1 359 336 341 334 305 281 256 258 268 248 273 253 257
194 208 203 115 170 216 246 251 245 211 213 217 211 208 200 33 31 29 28 26 34 33 38 37 38 35 28 28 29 31 31 29 26 20 22 26 37 33 24 8 357 291 273 278 281 287 273 262 279
213 220 180 323 171 237 283 261 224 215 202 198 202 189 167 101 52 38 32 30 43 46 45 44 43 44 43 39 43 46 40 43 50 46 37 43 33 28 46 56 53 15 359 319 323 309 290 288 299
220 144 187 160 185 266 208 285 198 188 202 202 199 190 172 145 89 52 54 54 58 55 50 47 49 49 48 46 50 51 54 53 52 55 55 54 57 59 63 63 59 45 42 23 21 1 335 301 285
79 139 142 171 231 315 195 255 149 174 209 201 195 182 170 155 133 95 86 78 75 68 61 61 58 57 58 55 52 50 51 48 47 51 55 56 57 61 61 56 54 47 42 36 27 23 5 18 8
140 118 107 166 225 244 226 219 192 191 219 190 186 178 169 160 148 127 113 94 77 74 71 63 59 56 54 54 52 49 49 51 51 50 50 48 49 48 50 50 52 54 54 51 49 50 51 49 45
229 168 184 224 208 252 138 206 263 191 181 184 174 171 168 162 158 150 135 112 98 84 76 68 64 59 54 50 50 49 48 48 47 43 43 41 42 41 39 37 35 35 34 35 33 30 29 25 21
194 258 220 233 206 117 150 227 227 64 149 164 168 166 164 164 165 161 148 132 107 94 82 70 61 53 49 47 47 45 46 45 42 40 37 37 37 35 34 33 33 32 28 26 23 18 17 15 8
175 217 15 71 88 245 214 215 172 159 164 159 164 166 170 169 167 166 156 144 124 108 88 65 54 51 47 45 43 44 45 45 43 40 38 37 33 28 25 24 24 24 23 22 20 18 16 13 9
247 348 166 198 236 244 232 248 237 191 180 177 175 177 175 171 171 171 166 158 141 118 95 63 49 50 48 49 47 45 44 42 41 39 37 35 31 27 25 24 23 22 20 17 14 12 10 9 9
188 210 231 288 231 256 269 235 19 191 185 184 181 182 178 176 178 177 174 170 154 135 112 69 53 54 54 51 49 45 42 39 38 36 36 34 32 31 29 28 26 23 20 18 15 13 9 6 5
271 234 207 233 196 237 316 259 81 119 186 185 182 182 183 182 182 180 181 177 167 150 126 91 71 70 59 52 50 46 44 40 39 38 38 36 34 33 31 29 27 26 25 23 20 16 11 8 5